Temp
74 78 81 83 83 83 83 83 83 83 83 83 83 83 83 83 83 83 83 83 83 83 83 83 84 84 83 84 84 84 84 83 83 83 83 82 83 83 83 83 83 81 82
77 79 82 83 83 83 83 82 83 83 83 83 83 83 83 83 83 83 83 83 83 83 83 83 83 84 84 83 83 83 83 83 83 83 83 83 83 83 83 83 82 81 83
78 80 81 82 83 83 82 83 83 83 83 83 83 83 83 84 83 83 83 83 83 83 83 83 83 83 84 84 83 84 83 83 84 84 84 76 77 83 83 83 82 83 83
79 79 80 82 83 83 83 83 83 83 83 83 83 83 83 84 84 83 83 83 83 83 83 83 83 83 83 83 83 83 83 83 83 83 77 77 81 84 84 83 82 83 82
79 79 80 82 83 83 83 83 83 83 83 83 83 83 84 84 84 83 83 83 83 83 83 83 83 83 83 83 83 83 83 84 82 79 75 73 75 81 81 83 82 82 82
79 80 81 83 83 83 83 83 83 83 83 83 83 83 84 84 84 84 84 83 83 83 83 83 83 83 83 83 83 83 82 82 77 73 73 77 74 81 81 82 82 82 81
78 80 81 83 83 83 83 83 83 83 84 83 84 84 84 84 84 83 83 83 83 83 83 83 83 83 83 83 83 83 83 83 75 75 73 74 75 81 82 81 83 82 82
77 79 80 83 83 83 83 83 83 84 83 84 84 84 84 84 84 84 83 83 83 83 83 84 83 83 83 83 83 83 82 83 76 72 73 71 77 80 82 81 81 82 82
78 77 78 79 82 84 83 84 83 83 84 84 84 84 84 84 83 83 83 83 83 84 84 83 83 83 82 82 82 83 83 83 72 70 74 71 77 80 80 80 82 81 82
75 77 76 76 76 77 78 84 83 83 84 84 84 84 84 84 83 83 83 83 83 84 84 84 83 83 82 82 82 83 83 83 74 72 70 71 77 80 81 78 81 80 81
75 75 76 74 74 74 75 79 83 83 83 82 80 83 82 73 76 79 79 81 83 83 84 83 83 83 83 83 82 82 82 73 74 72 70 76 78 80 80 81 82 81 81
73 73 74 74 73 73 78 75 74 75 74 72 74 74 72 73 72 76 78 81 83 84 84 83 84 84 83 74 74 78 72 72 73 73 72 77 79 80 81 82 82 82 82
74 74 73 74 72 72 74 71 71 71 71 71 72 72 73 72 71 72 72 73 73 78 75 76 75 72 74 72 71 72 72 73 71 72 75 77 79 81 81 83 82 82 82
72 74 73 73 72 71 71 71 70 70 70 71 72 72 72 71 71 71 70 71 71 72 72 73 71 71 71 73 72 72 73 74 72 71 73 78 80 80 82 82 82 82 82
71 72 72 73 71 71 71 71 70 70 70 69 70 70 72 72 72 71 70 71 71 71 71 71 70 71 71 72 73 73 73 73 73 72 70 79 79 80 81 81 82 82 82
73 72 73 73 72 71 71 71 70 70 70 69 71 71 73 72 72 73 70 71 71 71 71 70 69 70 71 72 74 74 74 73 73 72 71 73 80 80 81 81 82 81 82
72 73 72 73 72 71 71 71 71 70 71 71 71 71 71 72 72 71 71 70 71 71 72 71 71 70 70 74 71 72 74 74 72 72 73 72 77 81 81 81 80 81 81
74 73 74 77 74 72 72 71 71 70 70 70 71 70 72 73 73 73 70 70 71 70 71 71 70 69 71 71 69 71 72 72 73 73 73 73 73 77 80 81 80 80 81
75 74 74 75 73 73 71 71 70 71 70 70 71 71 72 74 75 73 71 69 71 71 71 71 71 71 69 69 70 71 71 70 72 76 73 72 72 74 74 79 79 79 81
75 74 74 75 72 72 70 70 70 70 71 71 71 72 72 73 73 72 71 71 72 71 69 69 71 71 69 68 72 72 70 71 72 71 72 74 71 73 73 74 77 78 80
73 73 72 72 70 70 69 69 69 69 71 71 72 72 72 74 74 73 71 71 72 71 71 72 71 70 69 69 68 68 69 71 72 71 71 71 72 73 72 72 73 74 78
72 73 71 72 70 70 70 71 71 71 70 71 71 72 72 73 74 72 71 71 71 71 70 70 70 69 69 69 66 65 63 67 69 72 71 72 71 73 73 73 73 72 73
73 73 72 71 71 71 71 71 70 70 69 68 69 70 71 73 74 73 72 71 71 70 70 71 71 69 68 69 69 66 62 62 64 68 69 70 70 71 72 74 74 73 73
75 75 74 72 71 72 72 70 69 68 67 68 69 70 71 72 73 74 73 72 71 70 70 71 73 69 68 67 68 70 69 67 64 64 68 70 69 72 71 71 76 74 73
78 76 76 72 70 71 71 72 70 68 68 69 69 69 69 70 72 73 73 72 70 68 70 70 71 71 69 68 68 67 67 66 67 65 63 66 69 69 70 73 74 76 74
77 77 76 72 71 71 71 71 70 69 68 67 68 67 68 69 69 70 73 72 71 69 71 70 72 71 70 70 69 69 68 67 65 65 63 64 66 68 69 69 70 73 73
MSLP
1013.08 1013.20 1013.53 1013.85 1014.08 1014.21 1014.45 1014.47 1014.60 1014.86 1015.11 1015.46 1015.62 1015.85 1015.91 1016.08 1016.43 1016.61 1016.75 1016.83 1017.00 1017.14 1017.16 1017.31 1017.45 1017.52 1017.69 1017.76 1017.89 1018.08 1018.20 1018.35 1018.48 1018.64 1018.84 1019.10 1019.17 1019.29 1019.39 1019.50 1019.49 1019.64 1019.73
1012.44 1013.01 1013.55 1013.90 1014.19 1014.42 1014.64 1014.77 1014.94 1015.15 1015.43 1015.63 1015.94 1016.12 1016.24 1016.40 1016.63 1016.86 1017.00 1017.12 1017.25 1017.29 1017.32 1017.50 1017.70 1017.79 1017.94 1018.17 1018.28 1018.45 1018.56 1018.70 1018.80 1018.87 1018.96 1019.15 1019.39 1019.49 1019.73 1019.95 1020.04 1019.95 1019.99
1012.43 1012.89 1013.53 1013.99 1014.30 1014.58 1014.83 1014.98 1015.25 1015.50 1015.71 1015.95 1016.19 1016.50 1016.59 1016.70 1016.86 1017.04 1017.19 1017.29 1017.31 1017.41 1017.63 1017.79 1018.00 1018.11 1018.15 1018.33 1018.61 1018.74 1018.99 1019.02 1018.99 1019.02 1019.19 1019.55 1019.74 1019.81 1019.96 1020.31 1020.32 1020.38 1020.35
1012.47 1012.95 1013.49 1014.03 1014.46 1014.83 1015.10 1015.26 1015.46 1015.77 1016.04 1016.18 1016.39 1016.58 1016.81 1016.92 1017.04 1017.17 1017.30 1017.35 1017.45 1017.62 1017.79 1018.02 1018.18 1018.38 1018.44 1018.53 1018.88 1018.96 1019.12 1019.17 1019.33 1019.44 1019.69 1019.76 1019.92 1020.07 1020.32 1020.69 1020.62 1020.75 1020.73
1012.67 1013.10 1013.48 1014.03 1014.48 1014.91 1015.18 1015.48 1015.60 1015.85 1016.24 1016.47 1016.66 1016.80 1016.90 1017.03 1017.20 1017.40 1017.46 1017.52 1017.63 1017.85 1018.01 1018.20 1018.44 1018.55 1018.59 1018.74 1018.93 1019.18 1019.18 1019.21 1019.65 1019.82 1019.87 1020.15 1020.26 1020.37 1020.45 1021.10 1021.20 1021.08 1020.99
1012.76 1013.18 1013.49 1014.09 1014.51 1014.92 1015.24 1015.60 1015.86 1016.04 1016.35 1016.60 1016.75 1016.96 1017.06 1017.24 1017.49 1017.61 1017.69 1017.77 1017.84 1017.93 1018.05 1018.23 1018.40 1018.62 1018.72 1018.85 1019.03 1019.15 1019.26 1019.64 1020.11 1020.38 1020.36 1020.27 1020.69 1020.64 1020.47 1021.17 1021.59 1021.49 1021.44
1013.03 1013.39 1013.66 1014.07 1014.55 1015.07 1015.36 1015.70 1015.95 1016.14 1016.38 1016.73 1016.86 1017.03 1017.18 1017.35 1017.45 1017.63 1017.75 1017.94 1017.96 1017.96 1018.07 1018.29 1018.48 1018.67 1018.76 1018.86 1018.97 1019.19 1019.35 1019.59 1020.21 1020.38 1020.72 1020.53 1020.89 1020.83 1020.62 1020.80 1021.55 1021.78 1021.70
1013.00 1013.49 1013.92 1014.24 1014.66 1015.08 1015.45 1015.79 1016.08 1016.23 1016.43 1016.68 1016.80 1016.92 1017.17 1017.46 1017.59 1017.75 1017.83 1018.05 1018.03 1018.02 1018.17 1018.30 1018.60 1018.60 1018.66 1018.77 1018.89 1019.08 1019.49 1019.80 1020.38 1020.69 1020.59 1020.95 1020.82 1020.81 1020.91 1021.11 1021.70 1021.87 1022.03
1013.29 1013.67 1013.97 1014.29 1014.66 1015.08 1015.44 1015.79 1016.18 1016.37 1016.54 1016.74 1016.94 1017.06 1017.34 1017.59 1017.79 1017.89 1017.97 1018.02 1018.05 1018.11 1018.24 1018.45 1018.53 1018.60 1018.60 1018.72 1018.96 1019.10 1019.38 1019.74 1020.26 1020.68 1020.62 1020.79 1020.82 1020.91 1021.28 1021.51 1021.81 1021.95 1022.07
1013.67 1013.83 1014.14 1014.40 1014.76 1015.24 1015.59 1015.83 1016.24 1016.48 1016.69 1016.92 1017.06 1017.23 1017.52 1017.81 1017.93 1017.95 1018.08 1018.05 1018.03 1018.15 1018.27 1018.36 1018.49 1018.60 1018.69 1018.59 1018.84 1019.00 1019.21 1019.55 1019.94 1020.41 1020.51 1020.42 1020.60 1020.89 1021.13 1021.78 1021.89 1021.78 1022.17
1013.96 1014.17 1014.29 1014.62 1014.90 1015.27 1015.73 1015.94 1016.22 1016.57 1016.84 1016.89 1017.16 1017.43 1017.66 1018.17 1018.00 1018.07 1018.21 1018.22 1018.19 1018.16 1018.16 1018.28 1018.46 1018.52 1018.52 1018.52 1018.77 1018.86 1019.10 1019.51 1019.63 1019.89 1020.07 1020.05 1020.20 1020.52 1020.76 1021.33 1021.53 1021.79 1021.99
1014.06 1014.26 1014.50 1014.68 1015.07 1015.45 1015.73 1016.13 1016.35 1016.67 1016.81 1017.22 1017.40 1017.69 1018.03 1018.20 1018.25 1018.24 1018.29 1018.21 1018.11 1018.01 1018.00 1018.07 1018.19 1018.31 1018.37 1018.64 1018.78 1018.68 1018.97 1019.30 1019.19 1019.32 1019.55 1019.66 1019.84 1020.06 1020.53 1020.90 1021.25 1021.51 1021.88
1013.92 1014.30 1014.56 1014.90 1015.12 1015.54 1015.82 1016.21 1016.45 1016.75 1017.03 1017.45 1017.55 1017.71 1018.05 1018.36 1018.35 1018.41 1018.53 1018.47 1018.38 1018.12 1018.15 1018.16 1018.27 1018.46 1018.57 1018.66 1018.73 1018.63 1018.72 1018.85 1018.95 1019.00 1019.17 1019.33 1019.52 1019.59 1020.26 1020.63 1020.97 1021.37 1021.73
1014.11 1014.44 1014.65 1014.87 1015.16 1015.52 1015.88 1016.30 1016.59 1016.91 1017.21 1017.47 1017.54 1017.77 1017.94 1018.42 1018.49 1018.52 1018.60 1018.59 1018.35 1018.09 1018.05 1018.11 1018.27 1018.38 1018.42 1018.40 1018.38 1018.14 1018.19 1018.35 1018.54 1018.88 1018.93 1018.95 1019.14 1019.35 1019.80 1020.11 1020.59 1021.11 1021.56
1013.98 1014.37 1014.79 1014.92 1015.26 1015.54 1015.88 1016.24 1016.69 1017.02 1017.24 1017.49 1017.62 1017.75 1018.09 1018.26 1018.45 1018.41 1018.49 1018.51 1018.28 1018.10 1018.03 1018.11 1018.19 1018.22 1018.12 1018.09 1017.93 1017.81 1017.77 1017.93 1018.20 1018.43 1018.83 1018.66 1018.91 1019.17 1019.53 1019.85 1020.38 1020.93 1021.27
1014.01 1014.35 1014.72 1014.83 1015.12 1015.47 1015.94 1016.11 1016.52 1016.90 1017.14 1017.42 1017.49 1017.67 1017.93 1018.25 1018.30 1018.38 1018.47 1018.23 1018.09 1017.87 1017.80 1017.96 1018.06 1018.14 1017.96 1017.89 1017.57 1017.41 1017.33 1017.46 1017.73 1018.07 1018.59 1018.60 1018.57 1019.03 1019.37 1019.72 1019.99 1020.50 1020.92
1013.66 1014.02 1014.50 1014.88 1014.88 1015.44 1015.83 1016.01 1016.38 1016.74 1017.02 1017.21 1017.30 1017.57 1017.85 1018.10 1018.16 1018.33 1018.36 1018.17 1017.85 1017.62 1017.68 1017.78 1017.79 1018.00 1017.89 1017.42 1017.53 1017.23 1017.07 1017.35 1017.55 1017.81 1018.04 1018.19 1018.28 1018.74 1019.14 1019.62 1019.93 1020.32 1020.72
1013.30 1013.87 1014.41 1014.62 1014.80 1015.18 1015.57 1015.78 1016.24 1016.52 1016.77 1016.93 1017.10 1017.35 1017.54 1017.84 1018.06 1018.16 1018.32 1018.10 1017.73 1017.54 1017.66 1017.52 1017.81 1018.01 1017.94 1017.67 1017.67 1017.31 1017.24 1017.41 1017.54 1017.81 1018.02 1018.22 1018.43 1018.64 1019.04 1019.37 1019.66 1020.11 1020.64
1012.84 1013.44 1014.04 1014.29 1014.55 1014.92 1015.28 1015.56 1016.06 1016.22 1016.42 1016.72 1016.92 1017.07 1017.24 1017.56 1017.77 1018.05 1018.20 1018.08 1017.55 1017.51 1017.42 1017.65 1017.82 1017.86 1017.85 1017.80 1017.79 1017.74 1017.43 1017.55 1017.63 1017.69 1018.07 1018.35 1018.64 1018.81 1019.16 1019.36 1019.52 1019.97 1020.45
1012.73 1013.21 1013.65 1014.03 1014.42 1014.83 1015.21 1015.61 1015.98 1016.25 1016.24 1016.46 1016.64 1016.76 1016.90 1017.25 1017.41 1017.90 1018.00 1017.85 1017.48 1017.53 1017.44 1017.67 1017.80 1017.60 1017.65 1017.83 1017.70 1017.72 1017.61 1017.53 1017.60 1017.87 1018.16 1018.33 1018.73 1018.86 1019.15 1019.39 1019.63 1019.91 1020.19
1012.78 1013.12 1013.48 1013.92 1014.30 1014.89 1015.30 1015.77 1016.09 1016.14 1016.26 1016.31 1016.33 1016.38 1016.54 1016.77 1017.24 1017.36 1017.54 1017.47 1017.27 1017.35 1017.27 1017.56 1017.60 1017.66 1017.76 1017.65 1017.69 1017.73 1017.87 1017.65 1017.71 1017.91 1018.00 1018.32 1018.62 1018.82 1019.18 1019.43 1019.59 1019.93 1020.08
1012.63 1012.90 1013.40 1013.80 1014.20 1014.73 1015.02 1015.30 1015.42 1015.64 1015.88 1015.89 1015.98 1016.12 1016.23 1016.51 1016.78 1016.93 1017.24 1017.36 1017.19 1017.16 1017.16 1017.23 1017.38 1017.43 1017.53 1017.50 1017.72 1018.00 1018.14 1018.16 1017.96 1017.92 1018.12 1018.21 1018.44 1018.65 1018.90 1019.15 1019.46 1019.69 1019.96
1012.53 1012.72 1013.17 1013.66 1014.02 1014.51 1014.80 1015.04 1015.33 1015.64 1015.82 1015.99 1016.08 1016.02 1015.99 1016.13 1016.30 1016.46 1016.65 1016.89 1017.02 1016.96 1017.04 1017.05 1017.00 1017.13 1017.43 1017.61 1017.42 1017.59 1018.21 1018.37 1018.38 1018.12 1018.10 1018.10 1018.27 1018.54 1018.59 1018.85 1019.15 1019.40 1019.69
1012.05 1012.38 1012.74 1013.26 1013.84 1014.19 1014.53 1015.01 1015.24 1015.40 1015.67 1015.69 1015.72 1015.69 1015.78 1015.87 1015.96 1016.03 1016.30 1016.53 1016.74 1016.87 1016.91 1016.93 1017.06 1017.01 1017.18 1017.47 1017.60 1017.66 1017.76 1018.05 1018.46 1018.58 1018.28 1018.16 1018.27 1018.29 1018.45 1018.64 1018.69 1018.94 1019.25
1011.89 1012.12 1012.40 1012.99 1013.43 1013.75 1014.13 1014.47 1014.84 1015.16 1015.31 1015.36 1015.49 1015.53 1015.67 1015.78 1015.75 1015.77 1015.93 1016.15 1016.61 1016.79 1016.76 1016.82 1016.94 1016.98 1017.05 1017.18 1017.26 1017.65 1018.00 1017.98 1018.29 1018.56 1018.66 1018.26 1018.17 1018.04 1018.05 1018.15 1018.14 1018.26 1018.77
1011.68 1011.98 1012.42 1012.77 1013.01 1013.39 1013.72 1014.08 1014.42 1014.69 1015.01 1015.33 1015.39 1015.50 1015.57 1015.73 1015.83 1015.81 1015.71 1015.89 1016.10 1016.50 1016.51 1016.56 1016.73 1016.73 1016.89 1017.08 1017.17 1017.26 1017.49 1017.90 1018.07 1018.31 1018.52 1018.33 1018.25 1018.12 1017.91 1017.93 1017.85 1017.76 1018.01
Wind_Speed
8 8 16 17 18 18 17 16 18 19 19 19 19 19 20 20 18 16 16 16 15 14 13 12 11 11 12 12 14 16 16 17 15 15 16 14 14 14 14 15 16 12 17
12 10 17 17 18 18 18 17 17 17 18 18 18 18 18 18 17 16 16 15 14 13 13 12 10 11 12 11 13 14 15 15 15 15 15 15 15 14 13 14 14 12 17
14 12 13 17 18 19 18 18 18 17 18 17 17 16 16 17 17 16 15 14 13 12 11 11 10 9 10 12 12 13 13 15 16 15 14 5 6 14 12 12 14 16 16
14 11 11 17 17 18 19 19 18 19 18 17 17 17 16 16 15 15 13 12 11 10 9 9 9 8 7 11 11 12 12 12 12 13 4 4 6 14 15 8 12 14 15
13 10 11 17 16 17 18 17 17 18 18 17 16 16 15 15 14 12 12 10 9 7 6 6 6 7 6 8 9 10 10 11 9 5 5 4 4 13 13 10 7 11 14
13 11 15 17 17 17 17 17 17 17 17 16 16 15 14 13 11 10 8 8 7 6 5 4 4 5 5 6 8 9 9 9 7 2 3 4 5 14 17 7 8 9 13
12 11 13 18 17 16 16 16 16 16 16 15 15 14 12 11 10 9 7 6 6 5 5 4 4 6 6 7 7 8 8 7 5 4 4 6 5 13 17 12 11 11 11
12 11 11 17 17 16 16 16 14 15 15 14 14 13 12 11 9 7 5 5 6 5 6 5 5 7 8 8 9 10 10 7 5 2 3 4 9 14 12 11 12 15 13
10 10 9 10 14 17 15 16 15 15 15 14 13 12 11 9 7 6 5 5 5 6 6 5 6 6 8 8 10 9 11 8 4 3 3 3 7 15 14 8 13 14 16
8 9 8 7 6 7 8 16 15 14 14 14 13 12 10 9 7 6 5 5 5 6 6 7 6 7 8 8 8 11 11 13 4 5 4 4 10 14 19 19 18 15 14
7 8 7 6 6 6 6 7 14 14 12 13 11 10 8 2 2 3 4 6 6 6 7 7 7 8 8 9 8 10 11 3 5 5 4 12 14 15 20 21 19 15 14
12 9 8 7 7 6 5 2 5 5 3 3 3 1 3 3 2 4 4 6 4 7 8 8 7 8 9 1 2 6 1 4 5 4 4 14 15 12 19 20 17 16 15
14 10 8 8 7 7 5 3 2 2 2 3 4 4 3 2 0 1 2 3 2 5 2 2 0 1 2 2 2 3 3 4 3 3 6 14 15 15 20 20 18 18 17
12 11 10 8 8 6 4 3 4 3 2 2 3 3 3 2 2 1 2 3 4 3 3 3 1 1 4 4 5 5 4 4 3 2 5 15 14 15 20 21 21 20 18
13 10 10 10 9 6 5 4 4 3 3 3 3 3 2 3 3 1 4 3 4 2 3 3 3 2 4 4 4 4 5 5 5 3 2 14 15 16 16 16 20 21 20
11 11 11 11 9 8 6 6 4 4 4 4 4 4 4 3 3 2 4 4 4 3 3 3 3 3 4 3 3 3 5 3 4 4 4 5 17 17 18 18 21 22 22
12 13 12 10 9 9 8 6 5 4 4 4 4 4 5 4 3 3 4 4 4 2 3 3 2 3 4 1 3 4 1 3 3 4 3 3 6 16 16 15 18 21 22
12 14 12 11 11 10 9 6 5 5 4 4 4 3 5 5 4 4 3 4 4 2 3 2 2 3 2 1 1 3 1 3 4 4 3 3 3 4 10 12 15 22 23
13 13 14 12 11 10 7 5 5 6 5 4 3 4 5 5 4 3 3 4 5 3 1 2 2 3 2 1 0 1 1 2 3 4 4 4 5 4 3 10 13 18 23
8 9 10 8 8 8 4 4 3 3 3 4 5 5 6 4 4 4 4 5 4 3 2 1 3 2 1 1 0 2 1 4 4 4 4 4 4 4 4 5 7 9 19
6 7 8 7 6 6 3 3 3 4 4 3 5 7 6 4 5 5 4 4 3 4 3 3 2 3 2 1 1 2 2 2 3 4 4 4 4 4 5 4 3 3 8
7 8 7 7 6 5 3 2 2 3 3 3 3 5 5 5 6 5 5 5 5 2 2 1 4 2 1 1 2 1 2 3 2 1 3 5 6 4 5 6 5 5 4
7 8 8 7 8 7 6 3 1 3 2 2 2 3 5 6 6 6 5 5 5 2 3 3 2 2 2 1 2 4 2 2 1 1 3 4 5 4 4 6 7 7 6
10 8 8 8 8 8 8 5 5 4 4 4 4 3 4 5 6 6 6 5 5 3 4 2 3 2 2 2 1 1 1 3 1 2 2 1 4 6 5 4 7 8 8
8 9 8 7 7 8 9 8 6 4 3 2 3 5 5 4 5 5 6 4 5 4 3 4 3 3 2 2 2 2 1 1 2 2 2 2 1 3 4 6 6 6 7
7 8 6 7 8 7 9 8 9 8 6 4 4 4 4 3 4 5 6 5 5 5 5 4 3 4 4 2 2 2 3 2 2 3 2 2 3 3 3 4 5 6 6
Wind_Direction
170 151 149 141 134 128 124 117 111 111 112 114 118 120 121 120 120 117 115 113 112 109 107 109 112 111 109 111 113 118 123 124 134 124 131 128 124 121 120 122 119 122 120
143 148 149 147 140 133 129 123 116 115 116 116 117 115 116 119 121 121 119 117 115 114 111 111 115 120 120 119 123 125 131 133 136 133 128 135 125 127 123 121 127 126 125
147 148 148 151 145 139 134 130 128 125 123 123 121 119 122 125 126 124 122 121 120 118 113 114 113 120 127 133 132 134 135 141 142 137 124 108 119 128 126 133 133 128 129
145 149 149 154 150 145 139 137 135 136 135 131 131 132 132 131 129 129 129 126 126 124 126 122 121 122 138 140 142 140 145 150 134 124 86 128 152 134 127 135 128 134 121
146 150 156 154 153 150 146 143 142 143 143 140 137 138 137 135 135 136 134 137 135 135 136 132 129 132 149 149 147 148 159 149 125 99 101 93 120 115 100 135 138 130 132
149 153 162 158 155 156 152 150 150 147 149 147 146 146 145 141 140 142 145 158 148 161 161 161 158 156 163 167 167 167 179 163 105 64 93 127 107 127 119 146 150 157 139
150 156 156 159 161 163 160 159 157 154 154 153 152 153 150 149 151 150 164 181 177 187 191 184 176 185 195 182 167 178 186 155 131 131 118 122 179 152 144 157 172 176 151
148 154 157 161 163 166 164 159 162 160 159 159 155 153 150 155 148 147 167 189 209 202 210 205 200 208 211 203 186 181 174 145 107 81 128 160 188 170 161 175 180 167 165
146 150 155 160 170 169 166 166 169 165 164 159 160 156 166 169 165 176 189 204 212 214 214 207 208 221 226 226 201 189 197 200 143 202 189 187 212 177 175 203 206 180 163
145 152 151 147 150 153 165 169 168 170 170 174 181 176 168 175 180 199 209 222 220 212 212 210 211 223 238 234 208 201 206 221 181 210 203 208 207 190 177 188 215 185 172
149 148 152 147 136 137 147 182 175 180 185 191 182 178 176 137 156 237 230 237 237 218 217 214 214 222 231 229 226 221 229 221 208 194 192 205 213 204 194 189 193 182 176
165 156 158 150 145 139 157 156 143 195 150 128 164 133 141 159 187 223 240 225 250 226 231 234 224 238 243 57 289 273 195 223 215 179 194 208 213 217 191 180 187 180 177
171 164 162 155 146 146 148 140 141 144 134 149 173 180 156 151 124 28 315 304 295 269 288 310 147 133 246 273 264 264 249 242 225 184 191 203 213 201 192 192 184 184 183
166 174 161 156 154 156 142 152 155 159 171 185 220 210 154 160 245 250 266 271 255 242 248 252 193 241 254 251 230 222 232 226 218 184 199 197 189 191 199 200 194 189 189
167 171 176 165 165 171 164 156 158 176 170 194 220 220 208 182 224 189 265 261 265 265 247 229 227 256 268 255 234 253 248 205 219 184 190 198 196 197 210 200 192 195 191
172 178 180 181 175 177 181 177 177 162 176 186 213 217 220 199 225 217 263 278 284 261 237 177 217 227 244 256 239 240 260 227 200 203 181 207 202 194 203 205 198 195 196
181 179 187 186 180 184 191 183 173 173 179 197 215 209 212 213 216 239 269 288 284 270 188 192 232 241 263 318 348 276 220 208 205 216 197 184 172 182 192 197 201 201 203
161 179 182 194 190 188 191 186 176 173 179 195 206 203 218 220 201 246 271 298 292 205 197 224 232 272 248 183 66 314 340 197 177 156 150 152 142 157 191 202 202 201 204
175 170 186 189 182 189 178 176 176 189 186 186 197 208 204 213 188 230 263 270 303 219 212 231 224 224 222 19 46 190 69 167 157 153 157 161 171 165 165 202 183 184 199
173 169 172 178 180 179 152 146 154 182 194 181 202 220 206 190 200 209 236 245 271 226 214 223 230 218 72 166 184 92 22 136 153 146 167 173 184 172 179 188 186 192 198
154 160 170 170 172 153 155 157 184 201 198 205 202 221 209 191 194 207 223 253 255 241 217 188 177 191 211 168 64 31 28 124 164 182 170 172 188 182 186 193 168 178 202
171 178 169 188 158 171 169 179 166 153 190 191 198 207 210 193 193 204 201 240 254 286 268 183 220 147 91 111 133 110 46 2 10 226 185 183 181 180 193 194 190 182 202
188 188 185 177 171 183 185 145 79 94 75 120 213 223 220 193 197 209 202 211 246 236 245 227 219 178 159 178 221 133 97 206 319 78 227 193 176 187 195 199 203 199 200
203 194 187 173 179 192 175 181 183 183 175 197 192 205 217 204 198 207 210 210 236 230 238 226 177 195 117 156 177 126 39 136 176 350 350 207 194 200 192 195 206 208 209
193 200 197 180 176 182 188 195 198 200 193 175 181 197 206 218 220 213 215 219 223 221 222 235 199 205 186 183 157 136 153 151 165 131 239 277 295 220 207 203 209 197 201
201 195 196 191 203 184 189 194 197 205 187 178 204 207 205 206 223 227 222 216 218 227 229 204 240 231 195 228 194 173 161 158 190 161 191 235 225 241 219 213 208 209 202